Le nostre stazioni meteo in Italia

Pubblicità
Il mio iltempo24.it
Chillingham Barns, Gran Bretagna (99196): Temperatura & dewpoint: 09.09.2019 20:00:00 - 15.09.2019 20:00:00 (BST)Chillingham Barns, Gran Bretagna (99196): precipitazioni: 09.09.2019 20:00:00 - 15.09.2019 20:00:00 (BST)
Data & Tempo tt [°C] td [°C] rr [mm]
15.09.2019 20:00:00 - - -
15.09.2019 19:00:00 12,5 7,0 0,0
15.09.2019 18:00:00 13,6 7,1 0,0
15.09.2019 17:00:00 14,4 7,7 0,0
15.09.2019 16:00:00 14,1 8,4 0,0
15.09.2019 15:00:00 13,6 7,6 0,0
15.09.2019 14:00:00 13,5 8,4 0,0
15.09.2019 13:00:00 12,2 6,8 0,0
15.09.2019 12:00:00 12,1 6,7 0,0
15.09.2019 11:00:00 11,7 6,6 0,0
15.09.2019 10:00:00 11,5 6,4 0,0
15.09.2019 09:00:00 11,3 6,7 0,0
15.09.2019 08:00:00 11,1 7,2 0,0
15.09.2019 07:00:00 10,7 7,7 0,0
15.09.2019 06:00:00 11,2 7,9 0,0
15.09.2019 05:00:00 11,4 7,9 0,0
15.09.2019 04:00:00 12,4 10,1 0,0
15.09.2019 03:00:00 12,8 11,2 0,6
15.09.2019 02:00:00 15,3 13,0 0,0
15.09.2019 01:00:00 15,9 12,4 0,0
15.09.2019 00:00:00 15,8 11,8 0,0
14.09.2019 23:00:00 15,8 10,2 0,0
14.09.2019 22:00:00 15,8 9,1 0,0
14.09.2019 21:00:00 15,5 8,4 0,0
14.09.2019 20:00:00 14,7 8,1 0,0
14.09.2019 19:00:00 15,5 7,1 0,0
14.09.2019 18:00:00 16,0 6,6 0,0
14.09.2019 17:00:00 16,4 7,9 0,0
14.09.2019 16:00:00 15,5 8,4 0,0
14.09.2019 15:00:00 15,7 9,1 0,0
14.09.2019 14:00:00 15,6 9,3 0,0
14.09.2019 13:00:00 15,2 8,2 0,0
14.09.2019 12:00:00 16,1 8,0 0,0
14.09.2019 11:00:00 15,1 8,4 0,0
14.09.2019 10:00:00 12,0 7,3 0,0
14.09.2019 09:00:00 11,3 7,1 0,0
14.09.2019 08:00:00 11,0 7,5 0,0
14.09.2019 07:00:00 11,4 7,6 0,0
14.09.2019 06:00:00 11,4 8,2 0,0
14.09.2019 05:00:00 10,3 7,5 0,0
14.09.2019 04:00:00 9,7 6,5 0,0
14.09.2019 03:00:00 8,6 5,3 0,0
14.09.2019 02:00:00 8,4 5,2 0,0
14.09.2019 01:00:00 9,4 5,9 0,0
14.09.2019 00:00:00 7,6 5,6 0,0
13.09.2019 23:00:00 8,6 5,9 0,0
13.09.2019 22:00:00 8,8 5,9 0,0
13.09.2019 21:00:00 9,5 5,9 0,0
13.09.2019 20:00:00 10,8 5,9 0,0
13.09.2019 19:00:00 14,4 7,2 0,0
13.09.2019 18:00:00 15,6 7,6 0,0
13.09.2019 17:00:00 17,5 7,1 0,0
13.09.2019 16:00:00 17,4 7,0 0,0
13.09.2019 15:00:00 16,6 6,2 0,0
13.09.2019 14:00:00 17,7 8,2 0,0
13.09.2019 13:00:00 15,9 6,7 0,0
13.09.2019 12:00:00 14,8 8,5 0,0
13.09.2019 11:00:00 14,2 6,6 0,0
13.09.2019 10:00:00 13,8 7,8 0,0
13.09.2019 09:00:00 11,9 7,6 0,0
13.09.2019 08:00:00 10,9 7,1 0,0
13.09.2019 07:00:00 9,6 6,8 0,0
13.09.2019 06:00:00 9,7 6,7 0,0
13.09.2019 05:00:00 9,1 6,7 0,0
13.09.2019 04:00:00 8,5 6,2 0,0
13.09.2019 03:00:00 9,1 6,7 0,0
13.09.2019 02:00:00 8,5 5,9 0,0
13.09.2019 01:00:00 9,8 6,4 0,0
13.09.2019 00:00:00 10,8 7,2 0,0
12.09.2019 23:00:00 11,5 7,7 0,0
12.09.2019 22:00:00 11,9 7,6 0,0
12.09.2019 21:00:00 13,0 8,5 0,0
12.09.2019 20:00:00 13,9 11,2 0,0
12.09.2019 19:00:00 14,9 12,3 0,0
12.09.2019 18:00:00 16,1 14,2 0,0
12.09.2019 17:00:00 15,9 14,5 0,0
12.09.2019 16:00:00 15,5 14,9 1,0
12.09.2019 15:00:00 15,7 15,2 0,6
12.09.2019 14:00:00 15,3 14,2 0,0
12.09.2019 13:00:00 15,3 12,7 0,0
12.09.2019 12:00:00 15,6 11,9 0,0
12.09.2019 11:00:00 15,4 11,5 0,0
12.09.2019 10:00:00 15,9 11,9 0,0
12.09.2019 09:00:00 15,3 11,1 0,0
12.09.2019 08:00:00 13,6 10,3 0,0
12.09.2019 07:00:00 13,1 9,7 0,0
12.09.2019 06:00:00 12,7 8,9 0,0
12.09.2019 05:00:00 12,8 8,7 0,0
12.09.2019 04:00:00 12,1 8,7 0,0
12.09.2019 03:00:00 13,2 8,0 0,0
12.09.2019 02:00:00 13,0 8,3 0,0
12.09.2019 01:00:00 13,0 8,6 0,0
12.09.2019 00:00:00 13,1 8,6 0,0
11.09.2019 23:00:00 13,1 8,4 0,0
11.09.2019 22:00:00 13,4 8,4 0,0
11.09.2019 21:00:00 13,6 8,2 0,0
11.09.2019 20:00:00 13,6 8,5 0,0
11.09.2019 19:00:00 14,6 8,9 0,0
11.09.2019 18:00:00 15,9 8,8 0,0
11.09.2019 17:00:00 16,4 8,6 0,0
11.09.2019 16:00:00 16,8 9,1 0,0
11.09.2019 15:00:00 16,5 10,0 0,0
11.09.2019 14:00:00 16,8 9,0 0,0
11.09.2019 13:00:00 16,3 9,8 0,0
11.09.2019 12:00:00 16,3 9,8 0,0
11.09.2019 11:00:00 16,4 11,0 0,0
11.09.2019 10:00:00 16,4 10,4 0,0
11.09.2019 09:00:00 15,4 9,7 0,0
11.09.2019 08:00:00 15,1 11,1 0,0
11.09.2019 07:00:00 16,3 13,5 0,0
11.09.2019 06:00:00 16,5 13,4 0,0
11.09.2019 05:00:00 15,3 13,8 0,0
11.09.2019 04:00:00 14,8 12,5 0,0
11.09.2019 03:00:00 14,2 11,9 0,0
11.09.2019 02:00:00 13,4 11,1 0,0
11.09.2019 01:00:00 12,6 10,2 0,0
11.09.2019 00:00:00 11,8 9,4 0,0
10.09.2019 23:00:00 11,7 9,3 0,2
10.09.2019 22:00:00 12,1 8,9 0,0
10.09.2019 21:00:00 12,2 8,1 0,0
10.09.2019 20:00:00 12,5 6,9 0,0
10.09.2019 19:00:00 13,5 6,6 0,0
10.09.2019 18:00:00 14,6 8,5 0,0
10.09.2019 17:00:00 16,2 8,8 0,0
10.09.2019 16:00:00 18,8 11,7 0,0
10.09.2019 15:00:00 16,2 11,8 0,0
10.09.2019 14:00:00 16,1 12,2 0,0
10.09.2019 13:00:00 15,2 12,1 0,0
10.09.2019 12:00:00 14,1 12,5 0,0
10.09.2019 11:00:00 13,7 12,1 0,0
10.09.2019 10:00:00 12,0 11,3 0,0
10.09.2019 09:00:00 10,7 10,1 0,0
10.09.2019 08:00:00 10,2 9,6 0,2
10.09.2019 07:00:00 9,7 9,0 0,0
10.09.2019 06:00:00 9,7 9,1 0,0
10.09.2019 05:00:00 9,5 8,9 0,0
10.09.2019 04:00:00 9,6 8,9 0,0
10.09.2019 03:00:00 10,0 9,0 0,0
10.09.2019 02:00:00 10,3 9,2 0,0
10.09.2019 01:00:00 9,8 8,6 0,0
10.09.2019 00:00:00 10,1 9,0 0,0
09.09.2019 23:00:00 9,6 8,6 0,0
09.09.2019 22:00:00 9,3 8,3 0,0
09.09.2019 21:00:00 9,9 8,3 0,0
09.09.2019 20:00:00 11,0 9,1 0,0

tt = Temperatura
td = dewpoint
rr = precipitazioni

Stazioni seguenti

WeatherPro
AMSI
MeteoEarth